(°C)
-3°
-3°
-3°
-3°
-3°
-3°
-3°
(°C)
-7°
-7°
-7°
-7°
-7°
-7°
-7°
JZ
JZ
JZ
JZ
JZ
ZJZ
ZJZ
(km/h)
3-8
3-8
3-9
3-7
3-7
4-8
4-7
(mm)
0
0
0
0
0
0
0
(%)
0
0
0
0
0
0
0

Sluneční výška

/ -58.3°
sun-icon
UV 2
07:47
17:06
Poslední čtvrť (269°)
00:19
11:16

METAR pro Tirol (LOWI)

Čas Podmínky Teplota/
Rosný bod
Vítr Viditelnost Počasí Oblaky Tlak Změna Nezpracované
VFR -3°C / -4°C variable 2kt >10km - Clouds and Visibility OK 1031 No Significant change LOWI 252150Z VRB02KT CAVOK M03/M04 Q1031 NOSIG
VFR -3°C / -4°C variable 1kt >10km - Clouds and Visibility OK 1031 No Significant change LOWI 252120Z VRB01KT CAVOK M03/M04 Q1031 NOSIG
VFR -2°C / -3°C variable 2kt >10km - Clouds and Visibility OK 1031 No Significant change LOWI 252050Z VRB02KT CAVOK M02/M03 Q1031 NOSIG
VFR -2°C / -3°C variable 1kt >10km - Clouds and Visibility OK 1031 No Significant change LOWI 252020Z VRB01KT CAVOK M02/M03 Q1031 NOSIG
VFR -2°C / -3°C variable 1kt >10km - Clouds and Visibility OK 1031 No Significant change LOWI 251950Z VRB01KT CAVOK M02/M03 Q1031 NOSIG
VFR -2°C / -3°C variable 1kt >10km - Clouds and Visibility OK 1031 No Significant change LOWI 251920Z VRB01KT CAVOK M02/M03 Q1031 NOSIG
VFR -1°C / -3°C variable 2kt >10km - Clouds and Visibility OK 1031 No Significant change LOWI 251850Z VRB02KT CAVOK M01/M03 Q1031 NOSIG
VFR -1°C / -3°C variable 1kt >10km - Clouds and Visibility OK 1031 No Significant change LOWI 251820Z VRB01KT CAVOK M01/M03 Q1031 NOSIG
VFR -1°C / -3°C variable 1kt >10km - Clouds and Visibility OK 1030 No Significant change LOWI 251750Z VRB01KT CAVOK M01/M03 Q1030 NOSIG
VFR 0°C / -2°C variable 1kt >10km - Clouds and Visibility OK 1030 No Significant change LOWI 251720Z VRB01KT CAVOK 00/M02 Q1030 NOSIG
VFR 1°C / -2°C variable 2kt >10km - Clouds and Visibility OK 1030 No Significant change LOWI 251650Z VRB02KT CAVOK 01/M02 Q1030 NOSIG
VFR 1°C / -2°C 150º 2kt >10km - Clouds and Visibility OK 1030 No Significant change LOWI 251620Z 15002KT CAVOK 01/M02 Q1030 NOSIG
VFR 2°C / -2°C variable 1kt >10km - Clouds and Visibility OK 1030 No Significant change LOWI 251550Z VRB01KT CAVOK 02/M02 Q1030 NOSIG
VFR 4°C / -1°C 170º 2kt >10km - Clouds and Visibility OK 1030 No Significant change LOWI 251520Z 17002KT CAVOK 04/M01 Q1030 NOSIG
VFR 5°C / -1°C 150º 2kt >10km - Clouds and Visibility OK 1029 No Significant change LOWI 251450Z 15002KT CAVOK 05/M01 Q1029 NOSIG
VFR 6°C / -1°C 170º variable 130º to 190º 3kt >10km - Clouds and Visibility OK 1029 No Significant change LOWI 251420Z 17003KT 130V190 CAVOK 06/M01 Q1029 NOSIG
VFR 7°C / -2°C 160º 3kt >10km - Clouds and Visibility OK 1029 No Significant change LOWI 251350Z 16003KT CAVOK 07/M02 Q1029 NOSIG
VFR 7°C / -1°C 160º 3kt >10km - Clouds and Visibility OK 1030 No Significant change LOWI 251320Z 16003KT CAVOK 07/M01 Q1030 NOSIG
VFR 7°C / -3°C variable 2kt >10km - Clouds and Visibility OK 1030 No Significant change LOWI 251250Z VRB02KT CAVOK 07/M03 Q1030 NOSIG
VFR 6°C / -3°C variable 2kt >10km - Clouds and Visibility OK 1031 No Significant change LOWI 251220Z VRB02KT CAVOK 06/M03 Q1031 NOSIG
VFR 5°C / -4°C variable 2kt >10km - Clouds and Visibility OK 1031 No Significant change LOWI 251150Z VRB02KT CAVOK 05/M04 Q1031 NOSIG
VFR 4°C / -3°C variable 2kt >10km - Clouds and Visibility OK 1032 No Significant change LOWI 251120Z VRB02KT CAVOK 04/M03 Q1032 NOSIG
VFR 2°C / -4°C 200º variable 150º to 240º 3kt >10km - Clouds and Visibility OK 1032 No Significant change LOWI 251050Z 20003KT 150V240 CAVOK 02/M04 Q1032 NOSIG
VFR 1°C / -4°C 250º variable 200º to 280º 3kt >10km - Clouds and Visibility OK 1032 No Significant change LOWI 251020Z 25003KT 200V280 CAVOK 01/M04 Q1032 NOSIG

VFR

-3°C / -4°C

[Víc]
Vítr variable 2kt
Viditelnost >10km
Počasí -
Oblaky Clouds and Visibility OK
Tlak 1031
Změna No Significant change
Nezpracované LOWI 252150Z VRB02KT CAVOK M03/M04 Q1031 NOSIG

VFR

-3°C / -4°C

[Víc]
Vítr variable 1kt
Viditelnost >10km
Počasí -
Oblaky Clouds and Visibility OK
Tlak 1031
Změna No Significant change
Nezpracované LOWI 252120Z VRB01KT CAVOK M03/M04 Q1031 NOSIG

VFR

-2°C / -3°C

[Víc]
Vítr variable 2kt
Viditelnost >10km
Počasí -
Oblaky Clouds and Visibility OK
Tlak 1031
Změna No Significant change
Nezpracované LOWI 252050Z VRB02KT CAVOK M02/M03 Q1031 NOSIG

VFR

-2°C / -3°C

[Víc]
Vítr variable 1kt
Viditelnost >10km
Počasí -
Oblaky Clouds and Visibility OK
Tlak 1031
Změna No Significant change
Nezpracované LOWI 252020Z VRB01KT CAVOK M02/M03 Q1031 NOSIG

VFR

-2°C / -3°C

[Víc]
Vítr variable 1kt
Viditelnost >10km
Počasí -
Oblaky Clouds and Visibility OK
Tlak 1031
Změna No Significant change
Nezpracované LOWI 251950Z VRB01KT CAVOK M02/M03 Q1031 NOSIG

VFR

-2°C / -3°C

[Víc]
Vítr variable 1kt
Viditelnost >10km
Počasí -
Oblaky Clouds and Visibility OK
Tlak 1031
Změna No Significant change
Nezpracované LOWI 251920Z VRB01KT CAVOK M02/M03 Q1031 NOSIG

VFR

-1°C / -3°C

[Víc]
Vítr variable 2kt
Viditelnost >10km
Počasí -
Oblaky Clouds and Visibility OK
Tlak 1031
Změna No Significant change
Nezpracované LOWI 251850Z VRB02KT CAVOK M01/M03 Q1031 NOSIG

VFR

-1°C / -3°C

[Víc]
Vítr variable 1kt
Viditelnost >10km
Počasí -
Oblaky Clouds and Visibility OK
Tlak 1031
Změna No Significant change
Nezpracované LOWI 251820Z VRB01KT CAVOK M01/M03 Q1031 NOSIG

VFR

-1°C / -3°C

[Víc]
Vítr variable 1kt
Viditelnost >10km
Počasí -
Oblaky Clouds and Visibility OK
Tlak 1030
Změna No Significant change
Nezpracované LOWI 251750Z VRB01KT CAVOK M01/M03 Q1030 NOSIG

VFR

0°C / -2°C

[Víc]
Vítr variable 1kt
Viditelnost >10km
Počasí -
Oblaky Clouds and Visibility OK
Tlak 1030
Změna No Significant change
Nezpracované LOWI 251720Z VRB01KT CAVOK 00/M02 Q1030 NOSIG

VFR

1°C / -2°C

[Víc]
Vítr variable 2kt
Viditelnost >10km
Počasí -
Oblaky Clouds and Visibility OK
Tlak 1030
Změna No Significant change
Nezpracované LOWI 251650Z VRB02KT CAVOK 01/M02 Q1030 NOSIG

VFR

1°C / -2°C

[Víc]
Vítr 150º 2kt
Viditelnost >10km
Počasí -
Oblaky Clouds and Visibility OK
Tlak 1030
Změna No Significant change
Nezpracované LOWI 251620Z 15002KT CAVOK 01/M02 Q1030 NOSIG

VFR

2°C / -2°C

[Víc]
Vítr variable 1kt
Viditelnost >10km
Počasí -
Oblaky Clouds and Visibility OK
Tlak 1030
Změna No Significant change
Nezpracované LOWI 251550Z VRB01KT CAVOK 02/M02 Q1030 NOSIG

VFR

4°C / -1°C

[Víc]
Vítr 170º 2kt
Viditelnost >10km
Počasí -
Oblaky Clouds and Visibility OK
Tlak 1030
Změna No Significant change
Nezpracované LOWI 251520Z 17002KT CAVOK 04/M01 Q1030 NOSIG

VFR

5°C / -1°C

[Víc]
Vítr 150º 2kt
Viditelnost >10km
Počasí -
Oblaky Clouds and Visibility OK
Tlak 1029
Změna No Significant change
Nezpracované LOWI 251450Z 15002KT CAVOK 05/M01 Q1029 NOSIG

VFR

6°C / -1°C

[Víc]
Vítr 170º variable 130º to 190º 3kt
Viditelnost >10km
Počasí -
Oblaky Clouds and Visibility OK
Tlak 1029
Změna No Significant change
Nezpracované LOWI 251420Z 17003KT 130V190 CAVOK 06/M01 Q1029 NOSIG

VFR

7°C / -2°C

[Víc]
Vítr 160º 3kt
Viditelnost >10km
Počasí -
Oblaky Clouds and Visibility OK
Tlak 1029
Změna No Significant change
Nezpracované LOWI 251350Z 16003KT CAVOK 07/M02 Q1029 NOSIG

VFR

7°C / -1°C

[Víc]
Vítr 160º 3kt
Viditelnost >10km
Počasí -
Oblaky Clouds and Visibility OK
Tlak 1030
Změna No Significant change
Nezpracované LOWI 251320Z 16003KT CAVOK 07/M01 Q1030 NOSIG

VFR

7°C / -3°C

[Víc]
Vítr variable 2kt
Viditelnost >10km
Počasí -
Oblaky Clouds and Visibility OK
Tlak 1030
Změna No Significant change
Nezpracované LOWI 251250Z VRB02KT CAVOK 07/M03 Q1030 NOSIG

VFR

6°C / -3°C

[Víc]
Vítr variable 2kt
Viditelnost >10km
Počasí -
Oblaky Clouds and Visibility OK
Tlak 1031
Změna No Significant change
Nezpracované LOWI 251220Z VRB02KT CAVOK 06/M03 Q1031 NOSIG

VFR

5°C / -4°C

[Víc]
Vítr variable 2kt
Viditelnost >10km
Počasí -
Oblaky Clouds and Visibility OK
Tlak 1031
Změna No Significant change
Nezpracované LOWI 251150Z VRB02KT CAVOK 05/M04 Q1031 NOSIG

VFR

4°C / -3°C

[Víc]
Vítr variable 2kt
Viditelnost >10km
Počasí -
Oblaky Clouds and Visibility OK
Tlak 1032
Změna No Significant change
Nezpracované LOWI 251120Z VRB02KT CAVOK 04/M03 Q1032 NOSIG

VFR

2°C / -4°C

[Víc]
Vítr 200º variable 150º to 240º 3kt
Viditelnost >10km
Počasí -
Oblaky Clouds and Visibility OK
Tlak 1032
Změna No Significant change
Nezpracované LOWI 251050Z 20003KT 150V240 CAVOK 02/M04 Q1032 NOSIG

VFR

1°C / -4°C

[Víc]
Vítr 250º variable 200º to 280º 3kt
Viditelnost >10km
Počasí -
Oblaky Clouds and Visibility OK
Tlak 1032
Změna No Significant change
Nezpracované LOWI 251020Z 25003KT 200V280 CAVOK 01/M04 Q1032 NOSIG

TAF pro Tirol (LOWI)

From till


Maximum Temperature 4ºC on . Minimum Temperature -5ºC on .
From till Wind variable 2kt. Visibility 10km or more. Nil Significant Cloud.

Nezpracované: TAF LOWI 251715Z 2518/2618 VRB02KT CAVOK TX04/2614Z TNM05/2606Z

Radar pro Tirol

Mrholení
Slabé
Střední
Silné
Velmi silné
Kroupy

Značka lokality je umístněna na Tirol. Tato animace ukazuje srážky zaznamenané radarem za poslední hodinu a také 2h předpověď. Mrholení nebo slabé sněžení může být pro radar neviditelné. Intenzita srážek je barevně označena od světle modré po oranžovou.
Copyright 2022 Deutscher Wetterdienst / meteoblue.

Aktuální snímky ze satelitu a srážky pro Tirol, Rakousko

Značka polohy je umístěna na Tirol. [Víc]

Satelitní snímek v reálném čase kombinuje viditelné světlo během dne s infračerveným zářením během noci. V noci není obraz tmavý, protože infračervené záření dokáže detekovat teplotní rozdíly. Nízká oblačnost a mlha se bohužel těžko odlišují od pozemních teplot, a proto mohou být během noci téměř neviditelné. Satelitní snímky z Meteosatu pro Evropu jsou aktualizovány v reálném čase každých 5 minut. Snímky z GOES-16/GOES-17 (Severní a Jižní Amerika) a Himawari (Asie) jsou aktualizovány) každých 10 minut.

Srážky jsou odhadované na základě radaru a satelitů. V noci jsou odhady srážek ze satelitů méně přesné než během dne. Oranžové křížky označují místa, kde byl zaznamenán blesk (za Evropa).

Copyright 2022 EUMETSAT / meteoblue. Údaje o blescích poskytuje nowcast.